sat.trackr.live / text

‹ back to catalog

STARLINK-36203

NORAD 67214 · 2025-304Y

PAYLOAD ACTIVE UNKNOWN

§ Identity

Operator
Country
US
Launch date
2025-12-17
Launch site
AFWTR
Launch vehicle
Mass (kg)
RCS (m²)

Purposes: comms

External: N2YO · Heavens-Above · Gunter

§ Orbital elements

Epoch: 2026-05-24T22:51:47.460096Z

Period
96.11 min
Inclination
70.0018°
Eccentricity
0.0002744
Mean motion
14.98337276 rev/d
Perigee alt
570.1 km
Apogee alt
573.9 km
Semi-major
6,950.2 km
B*
3.0188e-4
RAAN
342.3480°
Arg perigee
264.4552°
Mean anomaly
95.6294°
Rev number
2,530

§ Raw data

STARLINK-362031 67214U 25304Y   26144.95263264  .00003512  00000+0  30188-3 0  99912 67214  70.0018 342.3480 0002744 264.4552  95.6294 14.98337276 25302

JSON: /api/v1/satellites/67214 · /tle

For live sub-satellite position, see the globe view (requires WebGL).

§ Visibility from observer

Set your observer location to see the next 7 days of passes ≥ 10°. The values pass through the URL so the page stays shareable.

No JS? Fill the form by hand. The geolocation button needs JavaScript.